Wind_Speed
13 14 14 16 16 16 16 16 16 16 16 16 17 17 17 17 17 16 14 18 23 22 21 16 14 12 9 7 6 5 2 1 2 4 15 19 14 12 8 4 10 14 9 14 22
17 17 17 18 18 19 20 19 18 17 17 17 16 16 16 16 16 14 12 16 22 25 23 18 15 15 11 9 9 7 7 1 9 4 11 18 15 6 3 6 5 10 13 17 21
19 19 18 19 20 19 19 20 21 19 18 17 17 17 15 14 13 13 13 13 17 22 23 22 22 20 16 16 14 8 3 4 5 16 16 18 20 4 7 9 2 3 7 14 22
20 20 21 21 20 20 21 21 21 22 21 18 17 16 16 13 5 3 5 9 15 23 27 27 26 24 20 22 15 18 8 7 8 12 12 17 15 5 6 3 4 5 2 7 20
19 20 21 22 23 23 23 24 25 25 24 23 21 18 16 14 6 17 14 10 11 21 27 27 28 26 25 19 20 19 11 13 11 14 18 17 13 2 6 4 5 3 2 6 16
19 20 20 21 21 21 23 26 27 27 25 24 24 22 20 13 13 17 17 17 16 16 25 29 29 25 24 23 26 19 18 16 12 11 26 27 20 9 8 6 2 2 4 9 13
19 20 20 21 22 21 21 22 23 23 25 24 22 22 22 9 16 18 17 18 18 19 20 26 27 28 25 26 24 24 23 16 6 14 27 30 22 11 10 5 2 0 8 9 14
22 22 24 24 24 23 23 21 21 20 21 23 23 20 20 13 19 15 16 15 16 19 21 23 27 26 29 20 23 22 20 11 17 26 30 29 14 14 15 10 7 2 9 10 13
23 23 23 23 22 20 20 20 20 19 19 19 20 19 16 16 18 18 19 18 16 20 22 22 28 27 27 25 26 24 16 8 11 30 26 26 13 19 17 14 10 7 9 12 13
20 19 20 22 21 19 18 18 16 15 16 15 16 15 13 10 16 22 23 24 18 20 25 27 29 30 31 28 27 15 20 10 4 28 22 28 18 18 13 16 12 10 6 14 15
21 19 18 19 18 19 16 13 13 15 14 13 14 14 11 10 18 19 23 26 23 19 33 30 31 37 35 28 24 15 16 12 9 3 30 28 24 19 15 16 15 13 10 12 15
22 19 16 18 17 17 16 15 13 12 13 10 15 13 10 17 21 21 22 24 29 28 36 30 36 36 28 26 25 20 21 19 8 5 20 32 27 22 19 13 9 6 8 7 15
22 18 16 16 16 17 13 14 13 13 18 10 4 4 8 15 18 21 22 24 28 31 34 35 36 35 33 29 29 29 27 24 8 2 9 22 24 28 24 21 20 21 16 15 11
22 19 17 13 15 15 13 13 11 9 9 8 6 7 6 5 9 18 27 25 25 33 31 31 37 30 33 34 31 32 29 22 15 8 5 18 11 27 28 27 26 25 22 16 18
20 20 17 15 12 14 13 12 8 3 3 3 2 3 9 10 7 1 14 33 30 26 30 28 28 37 28 37 30 21 26 17 16 14 16 22 8 30 29 33 31 27 23 16 19
19 20 17 15 13 10 9 8 6 3 6 6 6 3 6 8 12 13 10 18 35 26 24 31 15 13 34 33 32 24 12 10 11 17 10 24 27 23 37 36 32 32 28 23 20
19 18 18 16 12 9 6 5 4 5 4 6 4 5 5 1 3 3 3 11 20 29 27 28 31 22 15 25 23 24 19 4 5 4 7 18 20 34 27 33 30 26 27 20 19
15 15 18 15 7 4 3 6 6 2 6 12 13 7 6 2 4 6 8 7 19 16 20 26 13 36 23 25 19 33 29 9 5 5 6 15 16 31 31 25 23 21 22 22 24
13 16 18 5 7 7 6 7 1 4 9 14 14 10 6 4 3 6 16 16 7 7 11 7 17 17 36 22 21 21 24 27 13 7 0 11 29 34 27 18 24 25 24 28 28
15 14 13 9 9 7 5 7 4 6 10 12 7 7 6 6 4 5 5 9 9 5 10 5 9 20 24 24 25 24 17 19 15 5 5 7 13 21 24 24 21 25 26 28 27
16 15 7 7 6 3 6 4 2 5 8 9 8 7 13 12 11 6 2 2 6 9 6 3 9 16 21 29 29 26 23 19 15 15 6 2 14 22 17 18 18 22 25 17 26
18 11 9 5 3 5 2 1 4 6 6 8 11 14 11 13 11 9 4 2 6 12 8 10 5 15 17 21 18 21 14 26 19 9 12 18 20 13 12 13 17 19 22 19 20
16 11 11 9 8 11 10 9 9 11 8 4 6 14 15 13 10 9 11 10 11 6 12 9 3 6 8 13 18 18 21 16 17 24 22 14 24 25 10 7 9 17 15 15 19
15 7 12 14 14 14 15 15 12 6 6 9 10 9 12 17 15 11 20 21 25 20 18 10 7 6 2 6 6 10 14 10 12 17 24 29 19 18 15 11 8 10 15 15 16
16 7 8 11 17 16 17 16 11 14 7 5 6 8 11 14 19 20 15 25 29 26 25 16 13 11 11 8 5 9 14 10 8 14 17 24 28 21 20 5 8 10 15 16 18
18 12 9 13 16 17 16 15 16 12 11 9 9 10 14 14 15 24 20 18 20 16 16 20 13 9 7 5 6 9 11 10 6 12 13 19 24 15 20 24 12 12 15 17 22
21 13 6 8 9 10 9 8 9 8 7 7 10 14 14 15 20 21 21 20 21 15 16 14 13 6 4 6 5 6 6 9 8 9 12 21 18 15 17 25 16 15 16 18 23
Wind_Direction
313 310 305 303 303 303 302 298 296 295 292 286 282 279 277 275 272 270 259 236 233 231 234 233 243 246 251 243 235 230 198 301 275 186 237 205 177 179 181 171 127 147 182 194 173
309 305 303 301 299 300 300 299 297 295 293 291 287 283 280 276 273 271 245 235 227 227 227 226 231 239 230 231 242 243 276 46 18 300 232 194 182 154 150 205 174 167 172 186 185
305 304 302 301 300 297 294 295 297 295 292 291 288 284 282 280 276 269 251 239 224 221 220 215 214 223 221 220 227 220 185 308 26 348 210 192 193 182 82 68 167 61 195 190 192
306 304 301 299 296 294 294 293 291 291 291 289 288 284 278 275 280 254 232 230 219 209 208 212 212 213 214 225 227 250 239 296 340 318 221 201 185 173 101 79 65 36 124 201 186
303 301 299 297 295 293 291 289 289 287 287 288 285 280 276 266 230 232 214 211 211 209 207 207 214 208 215 217 226 238 251 279 283 298 242 216 205 88 144 205 30 10 192 180 186
309 306 305 303 300 296 291 287 284 284 286 282 280 276 271 271 239 236 232 223 218 211 209 206 210 214 219 211 219 223 245 264 282 280 212 210 197 196 198 205 34 315 192 176 189
314 312 311 308 306 302 294 288 285 283 279 280 279 273 266 251 240 231 229 219 222 217 212 209 207 212 214 217 214 225 245 261 272 189 191 197 191 222 233 225 238 289 179 181 181
312 312 310 309 308 305 298 294 287 283 278 275 276 275 268 250 242 231 228 221 223 222 213 207 203 209 213 213 212 227 241 281 169 182 188 191 207 216 225 247 236 236 197 188 199
312 313 313 310 310 308 303 302 293 284 276 275 273 273 269 252 228 226 212 206 212 209 206 198 200 206 205 213 211 217 223 206 177 190 190 195 213 212 220 231 237 234 214 199 205
317 320 317 313 313 315 317 317 305 290 280 278 273 272 247 238 220 214 210 192 192 197 185 181 189 198 203 209 212 208 219 223 154 196 217 208 220 217 222 232 237 251 259 213 210
320 325 323 314 314 316 328 320 309 296 295 283 269 260 247 227 209 204 209 197 187 194 185 182 196 201 200 207 205 202 219 220 186 84 221 219 221 227 228 221 228 243 268 235 225
319 321 321 314 315 317 323 318 318 312 310 293 271 270 245 219 216 202 208 207 206 205 192 195 210 203 206 209 213 206 215 224 202 325 213 214 225 220 225 233 259 264 292 297 223
323 322 317 312 309 306 310 301 305 321 318 5 9 271 259 237 234 215 210 208 203 202 201 201 210 206 211 209 214 213 210 222 213 335 225 213 197 198 210 223 234 239 257 274 272
328 328 325 317 301 295 291 286 294 315 323 26 32 15 329 319 252 231 215 215 212 208 204 214 208 214 215 213 213 220 217 228 220 234 208 192 183 209 214 221 233 237 240 252 255
340 336 336 325 303 295 288 280 279 270 340 211 45 318 283 297 302 171 227 216 220 215 207 210 218 216 215 218 211 215 229 234 237 252 259 215 224 214 220 230 235 239 248 252 251
334 338 340 330 318 304 287 274 260 231 257 207 199 239 265 278 259 270 295 219 220 222 218 222 210 215 225 217 218 225 226 223 259 246 229 242 221 236 221 240 247 244 249 259 249
327 334 332 326 309 302 284 247 214 218 284 284 290 344 358 225 97 68 192 217 203 210 219 225 221 213 198 216 213 207 213 220 215 175 223 242 231 237 246 248 250 249 264 236 236
331 339 334 324 316 315 263 205 218 297 304 294 308 336 303 269 142 77 88 160 192 194 219 230 230 215 206 217 210 215 213 205 167 183 212 224 229 237 231 250 259 239 248 216 227
336 341 338 313 302 290 275 218 140 306 305 309 299 301 243 250 343 97 103 88 125 222 221 209 225 225 213 208 211 213 213 224 242 264 39 215 236 259 261 231 231 248 237 209 211
333 340 329 325 314 301 247 201 163 321 306 296 321 295 306 303 325 13 107 78 85 67 239 253 266 212 205 217 217 215 211 199 205 145 195 260 252 236 255 257 255 228 222 207 206
337 337 316 313 325 36 98 110 278 308 299 299 304 294 304 317 333 4 39 196 62 110 101 217 226 228 213 214 216 211 218 219 217 220 159 187 251 232 266 285 258 241 223 210 205
335 322 297 275 291 236 270 268 283 287 308 296 288 297 299 305 313 304 231 239 348 27 8 12 203 248 238 213 216 216 220 228 217 202 213 216 244 206 250 275 254 241 236 234 216
337 308 271 274 250 242 243 259 282 284 280 227 212 267 289 306 313 287 272 260 265 304 358 352 4 302 211 199 215 221 228 228 206 225 231 193 237 243 265 209 223 224 231 240 221
342 294 250 250 250 250 250 261 256 266 302 284 288 294 279 289 292 274 279 282 270 259 272 304 290 274 269 319 264 218 193 187 200 214 223 227 235 222 240 281 291 248 232 248 254
345 325 263 248 240 243 248 250 245 238 243 287 294 295 314 308 301 297 292 271 273 275 272 272 277 276 272 307 288 242 220 201 216 209 221 232 230 221 217 235 304 252 226 214 225
343 330 294 260 256 256 240 237 241 240 254 244 257 276 284 292 286 297 302 285 286 260 257 258 256 275 290 248 259 247 235 226 232 222 227 223 234 211 219 237 261 239 198 207 213
347 342 307 256 249 240 234 235 235 222 213 243 250 260 266 271 281 291 295 277 266 261 221 204 224 243 232 198 213 233 235 212 203 230 214 226 221 199 225 235 225 229 209 207 210
Height
3160 3157 3155 3153 3150 3149 3147 3146 3144 3143 3143 3143 3142 3142 3142 3142 3143 3143 3146 3149 3150 3153 3155 3157 3158 3159 3160 3161 3162 3162 3163 3162 3162 3163 3162 3163 3165 3167 3168 3168 3167 3168 3170 3172 3173
3157 3155 3153 3151 3149 3146 3144 3142 3141 3140 3139 3138 3138 3138 3137 3138 3138 3139 3142 3142 3144 3147 3151 3155 3157 3156 3159 3159 3159 3160 3161 3161 3162 3162 3162 3163 3164 3166 3168 3167 3168 3168 3168 3171 3174
3153 3151 3149 3147 3145 3143 3141 3139 3137 3136 3135 3134 3133 3133 3133 3134 3135 3135 3136 3138 3140 3143 3148 3151 3153 3154 3157 3157 3158 3159 3159 3161 3160 3162 3162 3164 3165 3167 3168 3168 3169 3168 3169 3170 3174
3149 3147 3145 3143 3141 3139 3137 3135 3134 3131 3130 3130 3130 3129 3129 3131 3135 3132 3133 3134 3136 3138 3141 3146 3149 3151 3153 3154 3158 3157 3158 3158 3159 3162 3162 3164 3167 3167 3169 3170 3169 3169 3169 3170 3173
3145 3143 3140 3138 3136 3134 3132 3130 3128 3127 3127 3126 3125 3126 3126 3127 3130 3128 3130 3132 3133 3135 3138 3142 3144 3149 3151 3154 3156 3155 3157 3157 3156 3160 3162 3165 3166 3168 3168 3169 3168 3169 3169 3171 3175
3141 3138 3135 3133 3131 3129 3127 3125 3123 3122 3122 3121 3120 3121 3122 3124 3124 3124 3127 3130 3131 3133 3135 3138 3142 3147 3149 3152 3153 3153 3155 3155 3154 3152 3155 3160 3165 3167 3167 3168 3169 3170 3170 3172 3175
3137 3135 3131 3128 3126 3124 3121 3120 3117 3117 3115 3115 3115 3115 3116 3121 3118 3119 3122 3126 3128 3130 3133 3137 3141 3143 3146 3148 3151 3150 3152 3154 3151 3151 3154 3160 3165 3164 3167 3166 3169 3170 3171 3173 3176
3134 3130 3127 3123 3120 3118 3116 3114 3112 3111 3110 3109 3109 3110 3110 3113 3113 3117 3119 3122 3125 3128 3131 3133 3136 3139 3141 3146 3147 3148 3151 3152 3150 3152 3156 3159 3159 3162 3164 3165 3167 3169 3171 3173 3176
3129 3126 3122 3119 3115 3113 3111 3108 3107 3106 3105 3105 3105 3105 3107 3107 3109 3110 3114 3118 3121 3124 3127 3128 3132 3135 3139 3140 3143 3146 3148 3151 3153 3154 3154 3159 3159 3161 3162 3164 3167 3169 3170 3172 3175
3125 3121 3117 3114 3111 3109 3107 3104 3102 3101 3101 3101 3100 3103 3104 3103 3104 3105 3109 3113 3118 3120 3121 3124 3127 3129 3132 3135 3136 3142 3146 3150 3152 3155 3156 3156 3157 3159 3161 3163 3166 3168 3169 3171 3174
3122 3118 3113 3110 3108 3105 3105 3103 3103 3100 3098 3097 3098 3097 3099 3100 3102 3103 3104 3109 3112 3116 3117 3120 3123 3122 3129 3134 3139 3142 3145 3147 3151 3153 3153 3154 3156 3157 3159 3162 3164 3166 3167 3168 3172
3117 3114 3110 3107 3104 3102 3101 3098 3097 3098 3093 3095 3093 3092 3094 3096 3098 3101 3103 3106 3108 3110 3115 3118 3116 3124 3129 3132 3136 3140 3142 3144 3147 3148 3151 3153 3154 3156 3157 3159 3161 3164 3166 3167 3170
3113 3110 3107 3104 3101 3100 3099 3097 3096 3096 3093 3091 3090 3090 3091 3093 3094 3098 3101 3102 3104 3107 3110 3113 3116 3122 3125 3129 3133 3136 3139 3141 3146 3148 3148 3150 3153 3154 3157 3159 3160 3161 3164 3167 3168
3109 3105 3102 3101 3100 3097 3096 3095 3095 3095 3093 3093 3091 3091 3091 3091 3091 3094 3097 3101 3102 3104 3108 3111 3114 3117 3121 3125 3131 3133 3137 3140 3145 3148 3150 3150 3153 3153 3154 3155 3156 3158 3160 3163 3166
3106 3102 3100 3097 3096 3094 3094 3093 3094 3094 3095 3093 3090 3090 3088 3090 3092 3091 3091 3096 3098 3102 3106 3107 3109 3114 3116 3120 3128 3133 3137 3141 3144 3146 3148 3150 3150 3148 3151 3150 3150 3152 3154 3159 3163
3104 3100 3097 3094 3092 3091 3090 3091 3093 3095 3090 3088 3087 3088 3087 3087 3087 3089 3089 3090 3096 3101 3103 3106 3110 3111 3115 3120 3125 3132 3136 3139 3141 3144 3146 3145 3146 3141 3141 3140 3145 3148 3150 3155 3159
3101 3097 3094 3091 3090 3088 3088 3089 3092 3090 3089 3087 3086 3086 3086 3085 3086 3087 3085 3088 3092 3096 3098 3101 3103 3108 3111 3117 3122 3128 3132 3136 3140 3142 3139 3140 3141 3134 3135 3138 3140 3143 3146 3151 3155
3098 3095 3091 3088 3086 3086 3086 3088 3089 3088 3086 3085 3084 3086 3086 3085 3086 3085 3085 3086 3090 3093 3096 3098 3101 3102 3106 3110 3117 3121 3126 3128 3133 3137 3132 3134 3131 3124 3131 3135 3137 3141 3145 3148 3150
3096 3092 3088 3086 3085 3085 3086 3086 3086 3086 3085 3083 3084 3084 3084 3085 3085 3085 3084 3086 3088 3091 3093 3093 3094 3099 3103 3109 3115 3117 3121 3127 3129 3129 3129 3128 3127 3126 3127 3130 3133 3136 3139 3141 3144
3093 3090 3086 3085 3083 3082 3083 3084 3084 3084 3084 3083 3083 3083 3082 3083 3085 3085 3085 3088 3089 3090 3091 3092 3093 3094 3101 3106 3109 3112 3119 3123 3122 3128 3133 3123 3122 3122 3122 3125 3127 3131 3133 3137 3142
3090 3087 3085 3083 3082 3081 3081 3082 3082 3082 3082 3083 3082 3082 3082 3083 3084 3086 3087 3088 3087 3087 3088 3089 3092 3093 3096 3097 3101 3107 3109 3114 3117 3119 3121 3126 3116 3119 3119 3121 3122 3125 3129 3133 3137
3086 3083 3081 3081 3082 3080 3080 3080 3081 3080 3080 3081 3081 3080 3082 3082 3084 3085 3086 3088 3087 3087 3087 3089 3088 3088 3091 3095 3100 3104 3106 3108 3111 3114 3115 3118 3112 3116 3116 3116 3117 3121 3125 3129 3134
3083 3080 3078 3079 3078 3078 3079 3079 3078 3078 3078 3078 3079 3080 3080 3082 3085 3082 3083 3086 3086 3087 3087 3088 3088 3086 3089 3092 3094 3097 3099 3101 3104 3108 3109 3113 3110 3116 3116 3115 3116 3118 3122 3126 3130
3082 3079 3076 3075 3075 3075 3075 3075 3077 3076 3076 3075 3076 3077 3079 3079 3079 3080 3079 3080 3080 3084 3086 3088 3087 3089 3090 3090 3090 3091 3093 3096 3099 3101 3105 3106 3109 3114 3116 3115 3117 3118 3120 3124 3127
3078 3077 3074 3073 3072 3071 3071 3071 3071 3073 3073 3073 3073 3074 3074 3076 3075 3074 3076 3075 3076 3079 3081 3086 3085 3086 3086 3087 3087 3088 3090 3094 3096 3099 3100 3105 3107 3110 3114 3115 3114 3117 3119 3122 3125
3076 3073 3069 3068 3066 3066 3066 3066 3067 3070 3070 3071 3071 3072 3071 3072 3073 3070 3071 3072 3070 3075 3078 3080 3083 3083 3083 3084 3085 3086 3089 3091 3094 3096 3097 3101 3104 3109 3112 3112 3113 3115 3117 3120 3123
3072 3070 3066 3064 3063 3063 3064 3064 3065 3067 3068 3068 3068 3068 3068 3068 3067 3066 3065 3065 3066 3069 3073 3076 3079 3081 3080 3081 3082 3085 3085 3087 3090 3090 3092 3095 3102 3106 3108 3110 3113 3114 3116 3120 3123